Location: Arborea
(39.7744°N, 8.5819°E)
Time: 01:57:39
(UTC+00:00)

Cosmos 2263 Rocket - Pass Details

Date: 24 October 2021
Orbit: 825 x 847 km, 71.0° (Epoch: 27 November)

Event Time Altitude Azimuth Distance (km) Brightness Sun altitude
Rises 16:49:54 0° 339° (NNW) 3,370 5.4 -3.9°
Reaches altitude 10° 16:52:23 10° 343° (NNW) 2,433 4.7 -4.3°
Maximum altitude 16:57:54 64° 64° (ENE) 914 2.2 -5.4°
Drops below altitude 10° 17:03:24 10° 146° (SSE) 2,422 4.4 -6.4°
Sets 17:05:51 0° 150° (SSE) 3,353 5.1 -6.9°
